Find Starlink 35434

NORAD ID: 66246 Int'l Des: 2025-245 Owner: SPXS Country: US Constellation: starlink operational
LEOCIRCULAR

Aktuelle Ansicht

3D-Globus wird geladen...

Über Starlink 35434

Beschreibung wird geladen...

Nächste Überflüge

Passes for default location (London). Set your location on the main map for personalized predictions.

Höhenverlauf

Loading altitude history...

Zweizeiliger Elementsatz

1 66246U 25245N 26159.49869610 .00023976 00000-0 78157-3 0 9996
2 66246 53.1592 221.8246 0001330 81.8156 278.2996 15.31712899 34952
Epoch: 8. Juni 2026 • Age: 12 hours

Aktueller Status

Höhe 472.2 km
Geschwindigkeit 7.63 km/s
Subsatellitenpunkt -3.37°S, 148.73°E
Startdatum 29. Okt. 2025
Alter 0.6 years
Typ internet

Technische Details

Klassifizierung Payload
Masse 575.00 kg
Trockenmasse 530.00 kg
Gesamtmasse 575.00 kg
Länge 0.30 m
Durchmesser 4.10 m
Spannweite 29.00 m
Form Box + pan
Hersteller SPXS
Bus-Typ Starlink V2MO
Phasenstatus In Orbit
Besitzer/Staat SPXS/US

Most Searched